Weather History for KFSM - October, 2013

Change the Weather History Date:

Sunday, October 27, 2013

  Actual Average Record
Temperature  
Mean Temperature 62 °F 59 °F  
Max Temperature 70 °F 71 °F 87 °F (1999)
Min Temperature 53 °F 47 °F 28 °F (1957)
Degree Days  
Heating Degree Days 3 7  
Month to date heating degree days 133 107  
Since 1 July heating degree days 133 124  
Cooling Degree Days 0 1  
Month to date cooling degree days 81 63  
Year to date cooling degree days 2303 2041  
Growing Degree Days 12 (Base 50)    
Moisture  
Dew Point 55 °F    
Average Humidity 77    
Maximum Humidity 100    
Minimum Humidity 53    
Precipitation  
Precipitation 0.00 in 0.14 in 5.30 in (1951)
Month to date precipitation 3.51 3.75  
Year to date precipitation 39.88 37.16  
Sea Level Pressure  
Sea Level Pressure 30.06 in    
Wind  
Wind Speed 2 mph (North)    
Max Wind Speed 9 mph    
Max Gust Speed 12 mph    
Visibility 6 miles    
Events      
T = Trace of Precipitation, MM = Missing Value Source: NWS Daily Summary

Daily Weather History Graph

Daily Weather History Graph

Search for Another Location

Airport or City:

Trip Planner

Search our weather history database for the weather conditions in past years. The results will help you decide how hot, cold, wet, or windy it might be!

Date:

Astronomy

Oct. 27, 2013 Rise Set
Actual Time 7:34 AM CDT 6:27 PM CDT
Civil Twilight 7:08 AM CDT 6:53 PM CDT
Nautical Twilight 6:38 AM CDT 7:23 PM CDT
Astronomical Twilight 6:09 AM CDT 7:52 PM CDT
Moon 12:46 AM CDT (10/27) 2:23 PM CDT (10/27)
Length of Visible Light 11h 45m
Length of Day
10h 53m
Last Quarter, 43% of the Moon is Illuminated
Oct 27
Last Quarter
Nov 3
New
Nov 9
First Quarter
Nov 17
Full
Nov 25
Last Quarter

Hourly Weather History & Observations

Time (CDT) Temp. Dew Point Humidity Pressure Visibility Wind Dir Wind Speed Gust Speed Precip Events Conditions
12:53 AM 57.0 °F 54.0 °F 89% 30.11 in 8.0 mi Calm Calm - 0.00 in   Overcast
1:53 AM 57.9 °F 55.0 °F 90% 30.10 in 7.0 mi Calm Calm - N/A   Overcast
2:31 AM 57.2 °F 55.4 °F 94% 30.10 in 6.0 mi West 3.5 mph - N/A   Overcast
2:53 AM 57.0 °F 55.0 °F 93% 30.09 in 5.0 mi Calm Calm - N/A   Overcast
3:14 AM 57.2 °F 55.4 °F 94% 30.09 in 5.0 mi Calm Calm - N/A   Overcast
3:53 AM 57.0 °F 55.0 °F 93% 30.08 in 5.0 mi West 4.6 mph - N/A   Overcast
4:53 AM 57.0 °F 55.0 °F 93% 30.07 in 5.0 mi Calm Calm - N/A   Overcast
5:53 AM 57.0 °F 55.0 °F 93% 30.06 in 5.0 mi Calm Calm - N/A   Overcast
6:53 AM 57.9 °F 54.0 °F 87% 30.06 in 10.0 mi Calm Calm - N/A   Overcast
7:53 AM 57.9 °F 54.0 °F 87% 30.07 in 7.0 mi Calm Calm - N/A   Overcast
8:53 AM 57.9 °F 55.0 °F 90% 30.09 in 6.0 mi Calm Calm - N/A   Overcast
9:53 AM 59.0 °F 55.0 °F 87% 30.10 in 5.0 mi Calm Calm - N/A   Overcast
10:32 AM 60.8 °F 55.4 °F 82% 30.10 in 6.0 mi WNW 3.5 mph - N/A   Overcast
10:53 AM 60.1 °F 55.0 °F 83% 30.10 in 7.0 mi Calm Calm - N/A   Overcast
11:01 AM 60.8 °F 55.4 °F 82% 30.11 in 7.0 mi Calm Calm - N/A   Overcast
11:53 AM 62.1 °F 55.0 °F 78% 30.10 in 8.0 mi Calm Calm - N/A   Overcast
12:53 PM 68.0 °F 55.9 °F 65% 30.07 in 9.0 mi Variable 4.6 mph - N/A   Scattered Clouds
1:00 PM 66.2 °F 55.4 °F 68% 30.08 in 10.0 mi SW 4.6 mph - N/A   Mostly Cloudy
1:39 PM 64.4 °F 55.4 °F 73% 30.06 in 9.0 mi WSW 5.8 mph - N/A   Mostly Cloudy
1:53 PM 66.9 °F 54.0 °F 63% 30.04 in 10.0 mi West 3.5 mph - N/A   Partly Cloudy
2:53 PM 68.0 °F 54.0 °F 61% 30.02 in 10.0 mi SW 5.8 mph - N/A   Clear
3:53 PM 70.0 °F 52.0 °F 53% 30.01 in 10.0 mi WSW 3.5 mph - N/A   Clear
4:53 PM 69.1 °F 53.1 °F 57% 30.01 in 10.0 mi Variable 4.6 mph - N/A   Clear
5:53 PM 66.0 °F 53.1 °F 63% 30.00 in 10.0 mi South 3.5 mph - N/A   Clear
6:53 PM 63.0 °F 55.0 °F 75% 30.01 in 10.0 mi SSE 4.6 mph - N/A   Clear
7:53 PM 59.0 °F 54.0 °F 83% 30.01 in 7.0 mi Calm Calm - N/A   Partly Cloudy
8:53 PM 57.9 °F 54.0 °F 87% 30.03 in 6.0 mi Calm Calm - N/A   Clear
9:53 PM 55.9 °F 54.0 °F 93% 30.04 in 5.0 mi Calm Calm - N/A   Clear
10:20 PM 53.6 °F 53.6 °F 100% 30.04 in 1.5 mi ENE 3.5 mph - N/A   Clear
10:22 PM 53.6 °F 53.6 °F 100% 30.04 in 0.8 mi ENE 4.6 mph - N/A   Mist
10:29 PM 53.6 °F 53.6 °F 100% 30.05 in 1.5 mi NE 3.5 mph - N/A   Clear
10:53 PM 55.0 °F 54.0 °F 96% 30.05 in 2.5 mi NE 3.5 mph - N/A   Partly Cloudy
11:08 PM 55.4 °F 53.6 °F 94% 30.06 in 2.0 mi NE 3.5 mph - N/A   Mostly Cloudy
11:22 PM 55.4 °F 55.4 °F 100% 30.06 in 1.0 mi ENE 3.5 mph - N/A   Overcast
11:49 PM 55.4 °F 55.4 °F 100% 30.05 in 2.0 mi ENE 3.5 mph - N/A   Overcast
11:53 PM 55.9 °F 55.0 °F 97% 30.05 in 2.5 mi ENE 3.5 mph - N/A   Overcast